Location: Oklahoma City
(35.4680°N, 97.5160°W)
Time: 11:54:50
(UTC-05:00)

ISS - All Passes

Search period start: 01 July 2015 00:00
Search period end: 11 July 2015 00:00
Orbit: 398 x 403 km, 51.6° (Epoch: 01 July)

Date Brightness Start Highest point End Pass type
(mag) Time Alt. Az. Time Alt. Az. Time Alt. Az.
01 Jul - 09:24:24 10° SSW 09:27:27 38° SE 09:30:29 10° ENE daylight
01 Jul - 11:01:29 10° W 11:03:57 20° NNW 11:06:24 10° NNE daylight
01 Jul - 15:54:51 10° NNW 15:56:56 16° NNE 15:59:04 10° ENE daylight
01 Jul - 17:30:24 10° WNW 17:33:35 55° SW 17:36:45 10° SSE daylight
02 Jul - 08:31:51 10° S 08:34:05 18° SE 08:36:24 10° E daylight
02 Jul - 10:07:18 10° WSW 10:10:19 34° NW 10:13:20 10° NNE daylight
02 Jul - 15:02:33 10° NNE 15:03:10 10° NNE 15:03:51 10° NE daylight
02 Jul - 16:36:55 10° NW 16:40:09 63° NE 16:43:20 10° ESE daylight
03 Jul - 09:13:33 10° SW 09:16:47 75° NW 09:20:02 10° NE daylight
03 Jul - 10:52:31 10° NW 10:53:41 11° NNW 10:54:47 10° N daylight
03 Jul - 15:43:40 10° NNW 15:46:34 30° NE 15:49:30 10° E daylight
03 Jul - 17:20:20 10° W 17:22:51 21° SW 17:25:19 10° S daylight
04 Jul - 08:20:13 10° SSW 08:23:20 46° SE 08:26:28 10° ENE daylight
04 Jul - 09:57:36 10° WNW 09:59:55 18° NNW 10:02:12 10° NNE daylight
04 Jul - 14:50:37 10° NNW 14:52:54 18° NNE 14:55:13 10° ENE daylight
04 Jul - 16:26:21 10° WNW 16:29:28 45° SW 16:32:34 10° SSE daylight
05 Jul - 07:27:27 10° S 07:29:56 21° SE 07:32:29 10° ENE daylight
05 Jul - 09:03:18 10° W 09:06:13 30° NW 09:09:08 10° NNE daylight
05 Jul - 13:57:59 10° N 13:59:06 11° NNE 14:00:17 10° NE daylight
05 Jul - 15:32:46 10° NW 15:36:00 76° NE 15:39:13 10° SE daylight
06 Jul - 08:09:24 10° WSW 08:12:37 62° NW 08:15:51 10° NE daylight
06 Jul - 09:48:55 10° NW 09:49:36 10° NNW 09:50:11 10° NNW daylight
06 Jul - 14:39:25 10° NNW 14:42:26 35° NE 14:45:26 10° ESE daylight
06 Jul - 16:16:22 10° W 16:18:39 17° SW 16:20:51 10° S daylight
07 Jul - 07:15:56 10° SW 07:19:06 56° SE 07:22:18 10° NE daylight
07 Jul - 08:53:37 10° WNW 08:55:46 16° NNW 08:57:51 10° NNE daylight
07 Jul - 13:46:17 10° NNW 13:48:44 20° NNE 13:51:13 10° E daylight
07 Jul - 15:22:12 10° WNW 15:25:14 38° SW 15:28:15 10° SSE daylight
08 Jul - 06:22:59 10° S 06:25:40 24° SE 06:28:24 10° ENE daylight
08 Jul - 07:59:11 10° W 08:02:00 27° NW 08:04:49 10° NNE daylight
08 Jul - 12:53:28 10° N 12:54:55 12° NNE 12:56:26 10° NE daylight
08 Jul - 14:28:30 10° NW 14:31:45 90° NNE 14:34:59 10° SE daylight
09 Jul - 05:31:09 10° SSE 05:32:15 12° SE 05:33:30 10° ESE visible
09 Jul - 07:05:10 10° WSW 07:08:21 52° NW 07:11:32 10° NE daylight
09 Jul - 13:35:04 10° NW 13:38:09 40° NE 13:41:13 10° ESE daylight
09 Jul - 15:12:20 10° W 15:14:19 15° SW 15:16:12 10° SSW daylight
10 Jul - 06:11:34 10° SW 06:14:47 68° SE 06:18:00 10° NE daylight
10 Jul - 07:49:33 10° WNW 07:51:29 15° NNW 07:53:22 10° N daylight
10 Jul - 12:41:51 10° NNW 12:44:26 22° NNE 12:47:04 10° E daylight
10 Jul - 14:17:56 10° WNW 14:20:53 32° SW 14:23:48 10° SSE daylight
